IRIDIUM 920

Satellite information

Favourite Embed

Satellite Type and Status

PAYLOADIN ORBIT

Key statistics

Satellite IRIDIUM 920 at a glance.

Uptime

10224

Days in orbit

Revolutions

≈ 14.4

Per day

Orbit

LEO

Low Earth Orbit

Inclination

86.4

Latest

Satellite identification and parameters

Extended collection of information and parameters for IRIDIUM 920.

Object identification

Identified? True

Debris? False

Object name: IRIDIUM 920

International designator: 1997-034C

Object number (NORAD): 24871

Object ID (CCSDS): 24871

Country: UNITED STATES OF AMERICA (US)

Current information (Y/N): Y

RCS size: LARGE

Orbital parameters

Period: 99.893 minutes

Inclination: 86.398 deg

SMA: 7131.537 km

Apoapsis: 762.393 km

Periapsis: 744.41 km

RAAN: 206.2261 deg

Eccentricy: 0.0012608

Argument of periapsis: 31.2574 deg

Mean anomaly: 328.9373 deg

Mean motion: 14.41544522 rev/day

Mean motion (dot): 0.00000321 rev/day2

B* drag term: 0.000092625 1/REarth

Two-line elements (TLE)

Creation date: July 5, 2025, 5:45 p.m.

Reference frame: TEME

Reference center: EARTH

Epoch: July 5, 2025, 1:10 p.m. UTC

TLE line 0: 0 IRIDIUM 920

TLE line 1: 1 24871U 97034C 25186.54889322 .00000321 00000-0 92625-4 0 9992

TLE line 2: 2 24871 86.3980 206.2261 0012608 31.2574 328.9373 14.41544522469226

Live tracking on map

Real-time ground track for satellite IRIDIUM 920.

In-orbit conjunctions

A list of the most updated potential collisions computed for object IRIDIUM 920.

Target Orbit TCA Probability of collision Miss distance Type
DMSP 5D-2 F13 DEB SSO 2025-04-29 12:18:27 0.000118208 660.0 (m) DEBRIS
IRIDIUM 33 DEB LEO 2025-02-25 20:35:40 0.0001554715 147.0 (m) DEBRIS
CZ-6A DEB LEO 2025-02-17 04:20:56 0.0001677629 961.0 (m) DEBRIS
FENGYUN 1C DEB * SSO 2025-02-10 07:29:09 0.0009828628 203.0 (m) DEBRIS
FENGYUN 1C DEB SSO 2024-12-31 23:24:43 0.0005348044 177.0 (m) DEBRIS

Associated space launch

Iridium provides global mobile telecommunications services using a constellation of 66 low earth orbit satellites in a 86.4° inclined orbit. Although 77 satellites were originally envisioned for the system and spawned the name based on the 77th element in the periodic table, the system has been scaled back. Motorola's Satellite Communications Group designed and manufactured the Iridium satellites with Lockheed Martin providing the LM-700A spacecraft buses.

IRIDIUM 920 was lifted into orbit during the mission ‘Delta II | Iridium 15’, on board a Delta II space rocket.

The launch took place on July 9, 1997, 1:04 p.m. from Space Launch Complex 2W.

For more information about the launch, click the button.

Launch to space Delta II | Iridium 15
Delta II | Iridium 15

Agency: N/A

Status: Launch Successful

Launch date: July 9, 1997, 1:04 p.m. UTC

Rocket: Delta II

Launch pad: Space Launch Complex 2W

Location: Vandenberg SFB, CA, USA

...

Latest news about this satellite

There are no fresh news available about this satellite. Check back as we update our databases every day.


Newsletter sign-up

Weekly statistics, charts and insights to help you stay on top of the space industry.